Showing default

A-SEANSAT-PG1, 57197

Orbit data source: Space-Track

A-SEANSAT-PG1, 57197 is a payload satellite owned by ANGKASA-X (MY) in SSO that was launched on Tue, 27 Jun 2023 UTC via a SOYUZ-2-1B launch vehicle from the Vostochny Cosmodrome (VOSTO). Payload-class satellites include a variety of spacecraft equipped with specific instruments for various scientific and technological missions. These include communications satellites like Starlink; space stations such as the ISS; scientific satellites like the Hubble; Earth observation satellites from companies like Planet Labs, Umbra, and HawkEye 360; GPS; miniature CubeSats for education and research; and military/defense satellites.

Loading next visibility...
Identifier
57197, 2023-091AH
Orbit
SSO
Country
Flag of MYMY / MALA
Related business
Manufacturer
ANGKASA-X
Mission
Operational Commercial Communications
Bus & Motor
CUBESAT 6U, Unknown motor
Mass
10 kg wet, 10 kg dry
Launch date (UTC)
2023-06-27 (3 years ago)
Launch vehicle
SOYUZ-2-1B
Launch site
Vostochny Cosmodrome (VOSTO)
Object type
Payload
Rocket body
Debris
Shape & HBR
Box, 0.1 m
Radar Cross Section
0.080 m², Medium (>0.1 m² and < 1m²)

Expand to show TLE details & history
Last TLE update: 13 hours ago

TLE from 13 hours ago
0 A-SEANSAT-PG1
1 57197U 23091AH  26105.92080828  .00009570  00000-0  28535-3 0  9992
2 57197  97.5126 174.2661 0005989 303.6315  56.4356 15.34863039155158
Epoch: 2026-04-15T22:05Z
TLE epoch observation values (Epoch: 2026-04-15T22:05:57.835Z)
Latitude
-0.00002°
Longitude
-1.30065°
Altitude
462.171 km
Speed
7.637 km/s
True Right ascension
11h 37m 03s
True Declination
0° 00' 00"
Sunlit
Object was in full shadow at epoch
Visualization orbit readout
Latitude
Unknown
Longitude
Unknown
Altitude
Unknown
Speed
Unknown
Apparent Right ascension
Unknown
Apparent Declination
Unknown
Sunlit
N/A
Visualization observer readout
Local Sidereal Time
18:04:45
Azimuth
Unknown
Elevation
Unknown
Doppler factor
Unknown
Orbital elements
Apogee altitude
462.372 km
Perigee altitude
454.184 km
Semi-major axis
6,836.415 km
Eccentricity
0.0006
Inclination
97.5126°
RAAN
174.2661°
Arg. of periapsis
303.6315°
True anomaly
56.49281°
Mean anomaly
56.4356°
Eccentric anomaly
56.4642°
Mean motion
3.83973 °/min
Orbital period
93.76 mins
BSTAR
0.00028535
Loading maneuver chart data...
Computing Atmospheric mass density...
Loading historical data...
Loading historical data...
Loading historical data...
Loading historical data...
Loading historical data...
Loading historical data...
Loading historical data...

Documentation

Showing up to 5 results
|